| time (UTC) | temp C | wind direction | speed KPH | gust KPH | rain 1hr cm | rain 24hr cm | rain mn cm | humidity % | barometer mb |
| 20260904211601 | 15 | 275 | 3.2 | 12.9 | 0.00 | 0.46 | 0.46 | 81 | 1018.4 |
| 20260904210622 | 15 | 234 | 3.2 | 12.9 | 0.00 | 0.46 | 0.46 | 81 | 1018.2 |
| 20260904205642 | 15 | 220 | 1.6 | 9.7 | 0.00 | 0.46 | 0.46 | 82 | 1018.1 |
| 20260904203603 | 14 | 217 | 0.0 | 6.4 | 0.00 | 0.46 | 0.46 | 83 | 1018.0 |
| 20260904201358 | 14 | 277 | 0.0 | 0.0 | 0.00 | 0.46 | 0.46 | 81 | 1017.7 |
| 20260904200418 | 14 | 257 | 0.0 | 3.2 | 0.00 | 0.46 | 0.46 | 80 | 1017.6 |
| 20260904195357 | 15 | 271 | 0.0 | 3.2 | 0.00 | 0.46 | 0.46 | 79 | 1017.4 |
| 20260904194402 | 15 | 221 | 1.6 | 11.3 | 0.00 | 0.46 | 0.46 | 78 | 1017.3 |
| 20260904192308 | 15 | 290 | 3.2 | 12.9 | 0.00 | 0.46 | 0.46 | 77 | 1017.0 |
| 20260904191250 | 16 | 248 | 4.8 | 16.1 | 0.00 | 0.46 | 0.46 | 76 | 1017.0 |
| 20260904190312 | 16 | 286 | 6.4 | 16.1 | 0.00 | 0.46 | 0.46 | 75 | 1016.9 |
| 20260904185307 | 16 | 279 | 4.8 | 14.5 | 0.00 | 0.46 | 0.46 | 75 | 1016.7 |
| 20260904184318 | 16 | 284 | 6.4 | 14.5 | 0.00 | 0.46 | 0.46 | 74 | 1016.6 |
| 20260904182155 | 16 | 265 | 8.0 | 22.5 | 0.00 | 0.46 | 0.46 | 73 | 1016.5 |
| 20260904181204 | 16 | 278 | 8.0 | 22.5 | 0.00 | 0.46 | 0.46 | 72 | 1016.3 |
| 20260904180153 | 17 | 287 | 6.4 | 17.7 | 0.00 | 0.46 | 0.46 | 72 | 1016.3 |
| 20260904175125 | 16 | 236 | 8.0 | 17.7 | 0.00 | 0.46 | 0.46 | 72 | 1016.3 |
| 20260904174103 | 17 | 275 | 9.7 | 17.7 | 0.00 | 0.46 | 0.46 | 72 | 1016.1 |
| 20260904173029 | 17 | 288 | 8.0 | 17.7 | 0.00 | 0.46 | 0.46 | 71 | 1016.2 |
| 20260904172000 | 17 | 265 | 9.7 | 17.7 | 0.00 | 0.46 | 0.46 | 71 | 1016.2 |
| 20260904171021 | 17 | 290 | 8.0 | 16.1 | 0.00 | 0.46 | 0.46 | 71 | 1016.1 |
| 20260904170035 | 17 | 296 | 8.0 | 16.1 | 0.00 | 0.46 | 0.46 | 71 | 1016.1 |
| 20260904165050 | 17 | 275 | 6.4 | 20.9 | 0.00 | 0.46 | 0.46 | 71 | 1016.0 |
| 20260904164024 | 17 | 257 | 6.4 | 20.9 | 0.00 | 0.46 | 0.46 | 70 | 1015.8 |
| 20260904163042 | 17 | 269 | 6.4 | 14.5 | 0.00 | 0.46 | 0.46 | 71 | 1015.7 |
| 20260904162103 | 17 | 277 | 6.4 | 17.7 | 0.00 | 0.46 | 0.46 | 70 | 1015.6 |
| 20260904160014 | 17 | 286 | 8.0 | 24.1 | 0.00 | 0.46 | 0.46 | 70 | 1015.6 |
| 20260904152738 | 17 | 246 | 8.0 | 22.5 | 0.00 | 0.46 | 0.46 | 67 | 1015.5 |
| 20260904151719 | 17 | 281 | 8.0 | 27.4 | 0.00 | 0.46 | 0.46 | 67 | 1015.6 |
| 20260904145552 | 18 | 279 | 8.0 | 22.5 | 0.00 | 0.46 | 0.46 | 67 | 1015.4 |
| 20260904144606 | 18 | 204 | 9.7 | 22.5 | 0.00 | 0.46 | 0.46 | 68 | 1015.2 |
| 20260904143609 | 18 | 290 | 8.0 | 22.5 | 0.00 | 0.46 | 0.46 | 67 | 1015.0 |
| 20260904141518 | 18 | 290 | 8.0 | 29.0 | 0.00 | 0.46 | 0.46 | 66 | 1014.9 |
| 20260904140445 | 18 | 290 | 9.7 | 29.0 | 0.00 | 0.46 | 0.46 | 65 | 1014.7 |
| 20260904135508 | 18 | 223 | 6.4 | 22.5 | 0.00 | 0.46 | 0.46 | 66 | 1014.7 |
| 20260904134436 | 18 | 265 | 9.7 | 20.9 | 0.00 | 0.46 | 0.46 | 67 | 1014.3 |
| 20260904133411 | 18 | 254 | 6.4 | 22.5 | 0.00 | 0.46 | 0.46 | 68 | 1014.5 |
| 20260904132351 | 18 | 265 | 8.0 | 22.5 | 0.00 | 0.46 | 0.46 | 68 | 1014.3 |
| 20260904131347 | 18 | 305 | 8.0 | 22.5 | 0.00 | 0.46 | 0.46 | 68 | 1014.2 |
| 20260904130407 | 18 | 275 | 11.3 | 22.5 | 0.00 | 0.46 | 0.46 | 67 | 1014.3 |
| 20260904125350 | 18 | 313 | 9.7 | 27.4 | 0.00 | 0.46 | 0.46 | 68 | 1014.2 |
| 20260904124328 | 18 | 248 | 9.7 | 27.4 | 0.00 | 0.46 | 0.46 | 68 | 1014.0 |
| 20260904123316 | 18 | 290 | 11.3 | 22.5 | 0.00 | 0.46 | 0.46 | 69 | 1013.9 |
| 20260904120031 | 18 | 290 | 9.7 | 19.3 | 0.00 | 0.46 | 0.46 | 69 | 1013.5 |
| 20260904115010 | 18 | 281 | 9.7 | 25.7 | 0.00 | 0.46 | 0.46 | 68 | 1013.4 |
| 20260904114005 | 17 | 299 | 11.3 | 27.4 | 0.00 | 0.46 | 0.46 | 68 | 1013.4 |
| 20260904113018 | 17 | 282 | 11.3 | 29.0 | 0.00 | 0.46 | 0.46 | 69 | 1013.5 |
| 20260904112032 | 17 | 293 | 12.9 | 29.0 | 0.00 | 0.46 | 0.46 | 69 | 1013.4 |
| 20260904111034 | 17 | 292 | 9.7 | 25.7 | 0.00 | 0.46 | 0.46 | 70 | 1013.3 |
| 20260904104921 | 18 | 272 | 11.3 | 32.2 | 0.00 | 0.46 | 0.46 | 68 | 1012.9 |
| 20260904102827 | 17 | 297 | 8.0 | 25.7 | 0.00 | 0.46 | 0.46 | 75 | 1012.7 |
| 20260904101819 | 17 | 271 | 6.4 | 14.5 | 0.00 | 0.46 | 0.46 | 76 | 1012.8 |
| 20260904095734 | 16 | 308 | 4.8 | 20.9 | 0.00 | 0.46 | 0.46 | 78 | 1012.7 |
| 20260904094737 | 16 | 268 | 6.4 | 20.9 | 0.00 | 0.46 | 0.46 | 79 | 1012.8 |
| 20260904093734 | 16 | 294 | 4.8 | 11.3 | 0.00 | 0.46 | 0.46 | 82 | 1012.7 |
| 20260904092759 | 16 | 273 | 4.8 | 14.5 | 0.00 | 0.46 | 0.46 | 83 | 1012.4 |
| 20260904091756 | 16 | 284 | 4.8 | 14.5 | 0.00 | 0.46 | 0.46 | 84 | 1012.4 |
| 20260904090759 | 16 | 275 | 4.8 | 16.1 | 0.00 | 0.46 | 0.46 | 85 | 1012.2 |
| 20260904084711 | 16 | 289 | 4.8 | 14.5 | 0.00 | 0.46 | 0.46 | 87 | 1011.7 |
| 20260904083733 | 16 | 283 | 4.8 | 14.5 | 0.00 | 0.46 | 0.46 | 88 | 1011.6 |
| 20260904082755 | 16 | 273 | 4.8 | 12.9 | 0.00 | 0.46 | 0.46 | 90 | 1011.9 |
| 20260904081803 | 15 | 270 | 3.2 | 12.9 | 0.00 | 0.46 | 0.46 | 90 | 1011.7 |
| 20260904080728 | 15 | 258 | 3.2 | 9.7 | 0.00 | 0.46 | 0.46 | 91 | 1011.7 |
| 20260904075745 | 15 | 286 | 3.2 | 12.9 | 0.00 | 0.46 | 0.46 | 91 | 1011.3 |
| 20260904074758 | 15 | 254 | 3.2 | 9.7 | 0.00 | 0.46 | 0.46 | 92 | 1011.4 |
| 20260904073731 | 15 | 248 | 0.0 | 4.8 | 0.00 | 0.46 | 0.46 | 92 | 1011.3 |
| 20260904072726 | 15 | 263 | 3.2 | 12.9 | 0.00 | 0.46 | 0.46 | 92 | 1010.8 |
| 20260904070627 | 15 | 253 | 6.4 | 17.7 | 0.00 | 0.46 | 0.46 | 93 | 1010.4 |
| 20260904065602 | 15 | 202 | 8.0 | 20.9 | 0.10 | 0.46 | 0.46 | 93 | 1010.3 |
| 20260904064615 | 16 | 289 | 8.0 | 20.9 | 0.10 | 0.43 | 0.43 | 93 | 1010.3 |
| 20260904063616 | 16 | 262 | 8.0 | 19.3 | 0.20 | 0.41 | 0.41 | 93 | 1010.2 |
| 20260904062558 | 16 | 245 | 6.4 | 19.3 | 0.08 | 0.36 | 0.36 | 93 | 1009.9 |
| 20260904061608 | 16 | 254 | 8.0 | 19.3 | 0.08 | 0.36 | 0.36 | 93 | 1009.8 |
| 20260904060629 | 16 | 261 | 6.4 | 16.1 | 0.18 | 0.36 | 0.36 | 93 | 1009.7 |
| 20260904055650 | 16 | 259 | 6.4 | 17.7 | 0.00 | 0.33 | 0.33 | 93 | 1009.7 |
| 20260904054616 | 16 | 231 | 6.4 | 25.7 | 0.00 | 0.30 | 0.30 | 93 | 1009.5 |
| 20260904053600 | 16 | 271 | 8.0 | 25.7 | 0.00 | 0.30 | 0.30 | 93 | 1009.2 |
| 20260904052533 | 16 | 277 | 9.7 | 22.5 | 0.08 | 0.30 | 0.30 | 93 | 1009.0 |
| 20260904051530 | 17 | 296 | 8.0 | 20.9 | 0.08 | 0.28 | 0.28 | 94 | 1009.1 |
| 20260904050533 | 17 | 268 | 9.7 | 24.1 | 0.15 | 0.28 | 0.28 | 94 | 1009.0 |
| 20260904045557 | 17 | 294 | 9.7 | 24.1 | 0.36 | 0.25 | 0.25 | 94 | 1009.1 |
| 20260904044615 | 18 | 286 | 9.7 | 22.5 | 0.15 | 0.18 | 0.18 | 94 | 1008.9 |
| 20260904042523 | 18 | 58 | 8.0 | 19.3 | 0.00 | 0.03 | 0.03 | 94 | 1007.9 |
| 20260904041516 | 19 | 276 | 8.0 | 22.5 | 0.00 | 0.00 | 0.00 | 94 | 1007.8 |
| 20260904040536 | 19 | 184 | 9.7 | 22.5 | 0.00 | 0.00 | 0.00 | 94 | 1007.9 |
| 20260904034408 | 19 | 284 | 9.7 | 24.1 | 0.00 | 0.00 | 0.00 | 93 | 1007.8 |
| 20260904033359 | 19 | 200 | 8.0 | 24.1 | 0.00 | 0.00 | 0.00 | 93 | 1008.0 |
| 20260904032413 | 19 | 225 | 8.0 | 24.1 | 0.00 | 0.00 | 0.00 | 92 | 1008.0 |
| 20260904031355 | 19 | 220 | 12.9 | 24.1 | 0.00 | 0.00 | 0.00 | 92 | 1007.9 |
| 20260904030406 | 19 | 277 | 9.7 | 25.7 | 0.00 | 0.00 | 0.00 | 91 | 1008.2 |
| 20260904025342 | 19 | 296 | 9.7 | 30.6 | 0.00 | 0.00 | 0.00 | 92 | 1008.2 |
| 20260904024327 | 19 | 265 | 9.7 | 37.0 | 0.00 | 0.00 | 0.00 | 92 | 1008.0 |
| 20260904023253 | 19 | 291 | 14.5 | 37.0 | 0.00 | 0.00 | 0.00 | 92 | 1008.0 |
| 20260904022236 | 19 | 273 | 16.1 | 33.8 | 0.00 | 0.00 | 0.00 | 92 | 1008.1 |
| 20260904021221 | 19 | 342 | 14.5 | 32.2 | 0.00 | 0.00 | 0.00 | 92 | 1008.2 |
| 20260904020234 | 19 | 207 | 12.9 | 29.0 | 0.00 | 0.00 | 0.00 | 93 | 1008.3 |
| 20260904015220 | 19 | 229 | 12.9 | 29.0 | 0.00 | 0.00 | 0.00 | 94 | 1008.5 |
| 20260904014146 | 18 | 224 | 12.9 | 29.0 | 0.00 | 0.00 | 0.00 | 94 | 1008.7 |
| 20260904013157 | 18 | 278 | 11.3 | 29.0 | 0.00 | 0.00 | 0.00 | 94 | 1008.8 |
| 20260904012211 | 18 | 286 | 9.7 | 29.0 | 0.00 | 0.00 | 0.00 | 94 | 1008.9 |
| 20260904011142 | 18 | 298 | 12.9 | 24.1 | 0.00 | 0.00 | 0.00 | 94 | 1009.0 |
| 20260904010111 | 18 | 270 | 11.3 | 27.4 | 0.00 | 0.00 | 0.00 | 94 | 1009.3 |
| 20260904005133 | 18 | 282 | 12.9 | 27.4 | 0.00 | 0.00 | 0.00 | 93 | 1009.6 |
| 20260904004126 | 18 | 355 | 14.5 | 25.7 | 0.00 | 0.00 | 0.00 | 93 | 1009.7 |
| 20260904003131 | 18 | 271 | 14.5 | 27.4 | 0.00 | 0.00 | 0.00 | 92 | 1009.7 |
| 20260904002144 | 18 | 344 | 12.9 | 29.0 | 0.00 | 0.00 | 0.00 | 92 | 1009.9 |
| 20260904001147 | 18 | 241 | 12.9 | 29.0 | 0.00 | 0.00 | 0.00 | 91 | 1009.9 |
| 20260904000118 | 18 | 281 | 14.5 | 27.4 | 0.00 | 0.00 | 0.00 | 91 | 1010.0 |
| 20260903235105 | 18 | 288 | 11.3 | 24.1 | 0.00 | 0.00 | 0.00 | 90 | 1010.0 |
| 20260903234054 | 18 | 263 | 11.3 | 24.1 | 0.00 | 0.00 | 0.00 | 90 | 1010.3 |
| 20260903233022 | 18 | 250 | 4.8 | 22.5 | 0.00 | 0.00 | 0.00 | 90 | 1010.5 |
| 20260903231948 | 18 | 258 | 3.2 | 22.5 | 0.00 | 0.00 | 0.00 | 90 | 1010.5 |
| 20260903224719 | 18 | 159 | 1.6 | 14.5 | 0.00 | 0.00 | 0.00 | 88 | 1011.7 |
| 20260903223719 | 18 | 232 | 3.2 | 19.3 | 0.00 | 0.00 | 0.00 | 87 | 1011.9 |
| 20260903222737 | 18 | 76 | 4.8 | 19.3 | 0.00 | 0.00 | 0.00 | 86 | 1012.2 |
| 20260903221756 | 18 | 252 | 1.6 | 9.7 | 0.00 | 0.00 | 0.00 | 85 | 1012.3 |
| 20260903220723 | 18 | 198 | 0.0 | 9.7 | 0.00 | 0.00 | 0.00 | 83 | 1012.5 |
| 20260903215653 | 18 | 232 | 0.0 | 3.2 | 0.00 | 0.00 | 0.00 | 82 | 1012.6 |
| 20260903214657 | 18 | 342 | 0.0 | 4.8 | 0.00 | 0.00 | 0.00 | 81 | 1012.8 |
| 20260903212620 | 18 | 136 | 1.6 | 9.7 | 0.00 | 0.00 | 0.00 | 80 | 1012.9 |